Flag for U.S.A. Weather past 2 weeks in Augusta, Georgia, U.S.A.

Now
79 °F

Sunny.


Feels Like: 79 °F
Forecast: 46 / 78 °F
Wind: 9 mph from West

Location: Daniel Field

Current Time: Mar 31, 2015 at 4:52:56 PM

Latest Report: Mar 31, 2015 at 3:53 PM


Visibility: 10 mi

Pressure: 29.92 "Hg

Humidity: 32%

Dew point: 47 °F

Location of AugustaLocation

Historic Weather in Augusta — Graph

°F

Augusta temperature yesterday

Maximum temperature yesterday: 73 °F (at 5:53 PM)
Minimum temperature yesterday: 46 °F (at 3:53 AM)
Average temperature yesterday: 58 °F

Past Weeks' High & Low Weather Summary

 TemperatureHumidityPressure
High85 °F (Mar 16, 4:53 PM)93% (Mar 20, 4:53 AM)30.46 "Hg (Mar 20, 4:53 AM)
Low37 °F (Mar 29, 6:53 AM)11% (Mar 16, 4:53 PM)29.68 "Hg (Mar 27, 5:53 AM)
Average61 °F60%30.05 "Hg
* Reported Mar 16 3:53 PM — Mar 31 3:53 PM, Augusta, Weather by CustomWeather, © 2015

Note: Actual official high and low records may vary slightly from our data, if they occured in-between our weather recording intervals... More about our weather records

Advertising

Augusta weather history for previous 24 hours

 ConditionsComfort  
Time TempWeatherWind HumidityBarometerVisibility
3:53 PM
Tue, Mar 31
79 °FSunny.9 mph32%29.92 "Hg10 mi
2:53 PM79 °FSunny.10 mph31%29.95 "Hg10 mi
1:53 PM77 °FSunny.9 mph31%29.99 "Hg10 mi
12:53 PM75 °FSunny.6 mph31%30.02 "Hg10 mi
11:53 AM73 °FSunny.9 mph30%30.05 "Hg10 mi
10:53 AM68 °FSunny.5 mph38%30.07 "Hg10 mi
9:53 AM61 °FSunny.No wind48%30.08 "Hg10 mi
8:53 AM55 °FSunny.No wind64%30.08 "Hg10 mi
7:53 AM51 °FClear.No wind66%30.06 "Hg10 mi
6:53 AM52 °FClear.No wind61%30.05 "Hg10 mi
5:53 AM51 °FClear.No wind66%30.04 "Hg10 mi
4:53 AM57 °FClear.6 mph53%30.04 "Hg10 mi
3:53 AM57 °FClear.5 mph55%30.05 "Hg10 mi
2:53 AM58 °FClear.7 mph54%30.06 "Hg10 mi
1:53 AM60 °FClear.5 mph49%30.07 "Hg10 mi
12:53 AM62 °FClear.8 mph46%30.07 "Hg10 mi
11:53 PM
Mon, Mar 30
63 °FClear.9 mph47%30.08 "Hg10 mi
10:53 PM65 °FClear.12 mph44%30.08 "Hg10 mi
9:53 PM65 °FClear.8 mph45%30.07 "Hg10 mi
8:53 PM67 °FClear.No wind44%30.04 "Hg10 mi
7:53 PM69 °FSunny.5 mph44%30.03 "Hg10 mi
6:53 PM71 °FSunny.9 mph41%30.03 "Hg10 mi
5:53 PM73 °FPassing clouds.9 mph41%30.03 "Hg10 mi
4:53 PM70 °FPassing clouds.8 mph49%30.03 "Hg10 mi
Weather by CustomWeather, © 2015

See weather overviewHow to use our weather pages